Location: Molveno
(46.1500°N, 10.9667°E)
Time: 08:13:13
(UTC+00:00)

Cosmos 2344 - Pass Details

Date: 05 July 2020
Orbit: 1249 x 2993 km, 63.3° (Epoch: 05 August)

Event Time Altitude Azimuth Distance (km) Brightness Sun altitude
Exits shadow 22:16:04 20° 203° (SSW) 2,533 4.7 -19.6°
Maximum altitude 22:21:27 71° 124° (ESE) 1,322 3.5 -19.9°
Drops below altitude 10° 22:29:22 10° 42° (NE) 3,469 6.3 -20.2°
Sets 22:32:28 0° 40° (NE) 4,595 7.0 -20.3°
